Starlink 4430

operational
NORAD ID: 53485 Int'l Des: 2022-099 Owner: SPXS Country: US Constellation: starlink
LEOCIRCULARRETROGRADESSO

About Starlink 4430

Description loading...

Live Position

Loading 3D Globe...

Upcoming Passes

Altitude History

Altitude vs Time

uPlot chart will show altitude changes over time

Two-Line Element Set

1 53485U 22099W 25308.58969646 -.00000342 00000-0 -22055-4 0 9997
2 53485 97.6048 67.7407 0001891 84.2592 275.8848 15.01262716177212
Epoch: Nov 4, 2025 • Age: 6 hours

Current Status

Altitude 565.5 km
Velocity 7.58 km/s
Sub-Earth Point 3.05°N, 74.78°E
Launch Date Aug 12, 2022
Age 3.2 years
Type internet

Technical Details

Classification Payload
Mass 300.00 kg
Dry Mass 275.00 kg
Total Mass 300.00 kg
Length 0.20 m
Diameter 2.80 m
Span 9.00 m
Shape Box + pan
Manufacturer SPXS
Bus Type Starlink
Phase Status In Orbit
Owner/State SPXS/US

Large Constellations

Loading constellations...